Welcome to the New NWS' Forecast!
Most changes are behind the scenes, but click here for differences you might notice.
Latest weather observations around

San Francisco, San Francisco International Airport (KSFO)

Using English Units (Switch to International System of Units)
Date/ Time (PST) Wind (mph) Vis. (mi) Weather Sky Cond. Temp (°F) Rel. Humidity Wind Chill (°F) Heat Index (°F) Pressure Precip. (in)
Air Dwpt 6 hour Altimeter (inHg) Sea level (inHg) 1 hr 3 hr 6 hr
Max Min
Nov 17 23:56 Calm 10 Clear CLR 53 39     59%     30.2 30.2      
Nov 17 22:56 S 3 10 Clear CLR 52 39     61%     30.21 30.21      
Nov 17 21:56 ENE 9 10 Clear CLR 57 39     51%     30.2 30.2      
Notice The following observation data may not be complete
Nov 17 20:56 NE 13 10 Clear CLR   39      %     30.2 30.19      
Nov 17 19:56 NE 11 10 Clear CLR 58 40     51%     30.2 30.19      
Nov 17 18:56 NE 9 10 Clear CLR 58 40     51%     30.19 30.18      
Nov 17 17:56 NE 11 10 Clear CLR 59 43     55%     30.17 30.17      
Nov 17 16:56 NNE 14 10 Mostly Clear FEW030 59 45     60%     30.15 30.15      
Nov 17 15:56   10 Mostly Clear FEW035 60 45     57%     30.15 30.15      
Nov 17 14:56 N 11 10 Mostly Clear FEW035 61 44     54%     30.16 30.16      
Nov 17 13:56 NNW 6 10 Mostly Clear FEW040 60 44     55%     30.17 30.16      
Nov 17 12:56 NW 5 10 Mostly Clear FEW035 59 41     51%     30.17 30.17      
Nov 17 11:56 N 10 10 Mostly Clear FEW035 58 44     60%     30.19 30.19      
Nov 17 10:56 N 10 10 Mostly Clear FEW035 58 45     62%     30.2 30.19      
Nov 17 09:56 N 7 10 Mostly Clear FEW035 58 44     60%     30.18 30.18     0
Nov 17 08:56 WNW 6 10 Mostly Clear FEW020 56 45     67%     30.16 30.16      
Nov 17 07:56 W 6 10 Partly Cloudy FEW040 SCT070 54 47     77%     30.15 30.15      
Nov 17 06:56 W 6 10 Partly Cloudy FEW020 SCT040 SCT070 52 47     83%     30.12 30.12   0  
Nov 17 05:56 NW 6 10 Mostly Clear FEW040 FEW060 53 49     86%     30.09 30.09      
Nov 17 04:56 W 7 10 Mostly Cloudy SCT030 BKN060 53 49     86%     30.06 30.06 0    
Nov 17 03:56 W 10 10 Partly Cloudy SCT030 54 48     80%     30.04 30.04     0
Nov 17 02:56 WSW 7 10 Mostly Cloudy SCT025 BKN030 54 50     86%     30.03 30.03      
Nov 17 01:56 W 6 10 Mostly Cloudy FEW023 BKN030 BKN060 54 50     86%     30.02 30.02      
Nov 17 00:56 W 9 10 Cloudy FEW009 SCT023 OVC031 54 50     86%     30 30   0  
Nov 16 23:56 WNW 9 7 Cloudy FEW009 SCT014 OVC023 53 50     89%     29.98 29.98 0    
Nov 16 23:05 WNW 11 4 Fog/Mist SCT006 BKN011 OVC019 54 51     90%     29.97   0    
Nov 16 22:56 W 11 5 Light Rain and Fog/Mist BKN008 BKN020 OVC025 54 51     90%     29.97 29.96 0    
Nov 16 22:44 W 13 4 Fog/Mist BKN008 BKN020 OVC025 54 51     90%     29.96   0    
Nov 16 22:32 W 14 6 Light Rain and Fog/Mist FEW006 BKN024 OVC037 54 50     86%     29.96   0    
Nov 16 21:56 SSW 7 10 Cloudy SCT008 BKN018 OVC028 58 52     81%     29.94 29.94     0
Nov 16 20:56 S 6 10 Cloudy FEW008 SCT041 OVC055 57 52     83%     29.93 29.93      
Nov 16 19:56 S 5 10 Cloudy FEW008 BKN037 OVC070 58 52     81%     29.92 29.91      
Nov 16 18:56 SSE 3 10 Cloudy FEW004 FEW015 OVC070 58 53     84%     29.9 29.9   0  
Nov 16 17:56 SW 3 10 Cloudy FEW004 BKN035 OVC060 57 53     87%     29.89 29.89      
Nov 16 16:56 WSW 6 10 Mostly Cloudy FEW005 BKN055 BKN070 57 53     87%     29.88 29.88 0    
Nov 16 16:27 W 7 6 Light Rain and Fog/Mist FEW006 SCT025 OVC045 57 53     87%     29.89   0    
Nov 16 15:56 W 9 6 Fog/Mist FEW006 BKN020 OVC048 57 52     83%     29.89 29.89 0   0
Nov 16 14:56 WNW 6 8 Cloudy FEW006 BKN023 OVC036 57 53     87%     29.87 29.87 0    
Nov 16 13:56 W 7 9 Light Rain FEW019 BKN036 OVC047 57 53     87%     29.88 29.87 0    
Nov 16 12:56 WNW 11 7 Light Rain FEW010 FEW014 OVC033 57 54     89%     29.89 29.88 0 0  
Nov 16 12:39 W 7 8 Light Rain FEW008 OVC034 57 54     89%     29.88   0    
Nov 16 12:28 W 6 4 Light Rain and Fog/Mist FEW008 BKN031 OVC040 57 54     89%     29.88   0    
Nov 16 11:56 WNW 5 2 Light Rain and Fog/Mist SCT006 OVC021 57 54     89%     29.89 29.88 0    
Nov 16 11:49 WNW 6 2 Light Rain and Fog/Mist SCT008 OVC021 56 54     93%     29.89   0    
Nov 16 11:40 WNW 7 4 Light Rain and Fog/Mist SCT008 BKN020 OVC031 57 54     89%     29.89   0    
Nov 16 11:28 NW 7 2.5 Light Rain and Fog/Mist SCT008 BKN023 OVC031 57 54     89%     29.89   0    
Nov 16 10:56 WNW 5 4 Light Rain and Fog/Mist SCT008 BKN025 OVC031 57 54     89%     29.9 29.9 0    
Nov 16 10:47 WNW 5 4 Light Rain and Fog/Mist SCT008 BKN025 OVC031 57 54     89%     29.9   0    
Nov 16 10:31 W 5 2 Rain and Fog/Mist FEW006 BKN010 OVC025 56 54     93%     29.91   0    
Nov 16 10:26 WNW 6 2 Heavy Rain and Fog/Mist BKN008 BKN012 OVC020 57 54     89%     29.9   0    
Nov 16 09:56 WNW 5 9 Light Rain SCT007 BKN011 OVC016 57 53     87%     29.9 29.9 0   1
Nov 16 08:56 W 3 5 Light Rain and Fog/Mist BKN009 OVC032 57 54     89%     29.89 29.89 0    
Nov 16 07:56 S 3 8 Light Rain SCT009 OVC028 56 54     93%     29.88 29.88 0    
Nov 16 07:16 Calm 3 Light Rain and Fog/Mist SCT008 OVC027 56 54     93%     29.87   0    
Nov 16 06:56 W 3 4 Fog/Mist FEW009 OVC029 56 54     93%     29.86 29.86 0 0  
Nov 16 05:56 W 10 5 Heavy Rain and Fog/Mist FEW008 BKN022 OVC032 55 53     93%     29.86 29.86 0    
Nov 16 04:56 WNW 9 6 Rain and Fog/Mist FEW006 BKN018 OVC024 56 53     90%     29.84 29.84 0    
Nov 16 04:15 WNW 10 6 Light Rain and Fog/Mist FEW006 BKN017 OVC021 56 54     93%     29.85   0    
Nov 16 03:56 W 6 4 Rain and Fog/Mist FEW012 BKN019 OVC027 57 55     93%     29.85 29.85 0   1
Nov 16 02:56 W 16 7 Light Rain FEW010 BKN022 OVC030 58 55     90%     29.85 29.85 0    
Nov 16 02:32   3 Rain and Fog/Mist FEW012 OVC027 61 57     87%     29.86   0    
Nov 16 01:56   3 Heavy Rain and Fog/Mist FEW015 BKN024 OVC090 62 58     86%     29.82 29.82 0    
Nov 16 00:56 S 21 3 Heavy Rain and Fog/Mist FEW015 BKN041 OVC070 62 58     86%     29.84 29.84 0 0  
Nov 15 23:56 S 18 6 Light Rain and Fog/Mist FEW010 BKN029 OVC034 61 58     90%     29.85 29.85 0    
Nov 15 18:56 SE 15 10 Mostly Cloudy BKN025 BKN090 63 51     65%     29.89 29.89      
Nov 15 18:37 SE 14 10 Mostly Cloudy BKN025 BKN090 63 51     65%     29.89        
Nov 15 17:56 SSE 10 10 Mostly Cloudy BKN031 BKN090 63 47     56%     29.91 29.91      
Nov 15 16:56 SSE 10 10 Mostly Cloudy FEW034 BKN090 BKN110 64 45     50%     29.89 29.89      
Nov 15 15:56 6 10 Mostly Cloudy BKN110 BKN150 65 46     50%     29.91 29.91     0
Nov 15 14:56 NE 3 10 Mostly Cloudy FEW026 BKN150 BKN180 60 48     64%     29.92 29.92      
Nov 15 13:56 E 7 10 Mostly Cloudy FEW026 BKN160 59 48     67%     29.93 29.93 0    
Nov 15 12:56 ENE 7 10 Mostly Cloudy FEW120 BKN160 59 48     67%     29.95 29.95      
Nov 15 11:56 ENE 5 10 Mostly Cloudy SCT120 BKN160 58 49     72%     29.98 29.97      
Nov 15 10:56 N 6 10 Cloudy FEW090 SCT120 OVC160 57 48     72%     30 30      
Nov 15 09:56 N 9 10 Cloudy FEW060 BKN095 OVC120 56 49     77%     30.01 30.01 0   0
Nov 15 08:56 N 9 10 Mostly Cloudy FEW060 SCT090 BKN110 56 49     77%     30.04 30.04 0    
Nov 15 07:56 NNE 7 10 Light Rain FEW060 BKN074 OVC100 57 49     74%     30.04 30.04 0    
Nov 15 06:56 Calm 10 Cloudy FEW060 BKN095 OVC110 55 47     74%     30.04 30.04      
Nov 15 05:56 SSE 3 10 Mostly Cloudy FEW060 SCT080 BKN100 55 46     72%     30.04 30.04      
Nov 15 04:56 Calm 10 Mostly Cloudy FEW060 SCT080 BKN110 56 45     67%     30.06 30.05      
Nov 15 03:56 SE 3 10 Mostly Cloudy FEW090 SCT120 BKN150 56 47     72%     30.06 30.06 0   0
Nov 15 02:56 NNE 6 10 Mostly Cloudy FEW080 BKN090 BKN110 56 43     62%     30.07 30.07      
Nov 15 01:56 W 6 10 Mostly Cloudy FEW090 BKN110 BKN170 55 44     66%     30.11 30.1      
Nov 15 00:56 NW 5 10 Mostly Cloudy FEW120 BKN150 56 44     64%     30.11 30.11      
Jun 12 03:56 W 15 10 Mostly Clear FEW012 53 48     83%     30.02 30.02      
Jun 11 22:56 W 11 10 Clear CLR 55 49     80%     30.01 30.01      
Jun 11 08:56   10 Mostly Clear FEW022 58 44     60%     29.95 29.95      
Jun 10 16:56 W 17 10 Mostly Clear FEW020 FEW033 65 46     50%     29.96 29.96      
Jun 09 23:56 W 15 10 Mostly Clear FEW013 56 50     80%     30 29.99      
Jun 09 19:56 W 15 10 Mostly Clear FEW021 59 49     69%     29.97 29.97      
Jun 09 09:23 W 15 10 Cloudy SCT007 BKN018 OVC039 58 51     78%     29.97        
Jun 09 02:56 W 6 10 Mostly Cloudy FEW011 SCT041 BKN090 60 55     83%     29.96 29.95      
Jun 08 16:56 SSW 7 10 Cloudy BKN018 OVC025 66 57     73%     30 29.99     0
Jun 08 08:56 SSE 9 10 Cloudy FEW014 SCT024 OVC034 60 52     75%     29.99 29.98 0    
Jun 08 06:56 SSE 14 10 Cloudy FEW014 OVC043 61 51     70%     29.95 29.95      
Jun 08 03:56 S 9 10 Cloudy FEW055 BKN075 OVC100 60 49     67%     29.94 29.93      
Jun 07 21:56 SSW 5 10 Cloudy FEW013 SCT110 OVC150 61 44     54%     29.94 29.94      
Jun 06 07:56 WNW 7 10 Mostly Clear FEW008 57 49     74%     29.94 29.94